Camp Point, IL

1:29 PM CST on January 18, 2017 (GMT -0600)
Quincy Regional-Baldwin

Weather History for KUIN - October, 2013

Change the Weather History Date:

Saturday, October 5, 2013

  Actual Average Record
Temperature  
Mean Temperature 62 °F 58 °F  
Max Temperature 75 °F 69 °F 89 °F (1938)
Min Temperature 49 °F 48 °F 31 °F (1988)
Degree Days  
Heating Degree Days 3 8  
Month to date heating degree days 3 36  
Since 1 July heating degree days 40 123  
Cooling Degree Days 0 1  
Month to date cooling degree days 42 6  
Year to date cooling degree days 1241 1082  
Growing Degree Days 13 (Base 50)    
Moisture  
Dew Point 60 °F    
Average Humidity 81    
Maximum Humidity 93    
Minimum Humidity 68    
Precipitation  
Precipitation 0.12 in 0.10 in 3.67 in (1955)
Month to date precipitation 0.30 0.52  
Year to date precipitation 30.20 29.57  
Sea Level Pressure  
Sea Level Pressure 29.88 in    
Wind  
Wind Speed 8 mph (SW)    
Max Wind Speed 16 mph    
Max Gust Speed 24 mph    
Visibility 10 miles    
Events Rain    
T = Trace of Precipitation, MM = Missing Value Source: NWS Daily Summary

Daily Weather History Graph

Daily Weather History Graph

Search for Another Location

Airport or City:

Trip Planner

Search our weather history database for the weather conditions in past years. The results will help you decide how hot, cold, wet, or windy it might be!

Date:

Astronomy

Oct. 05, 2013 Rise Set
Actual Time 7:05 AM CDT 6:40 PM CDT
Civil Twilight 6:38 AM CDT 7:07 PM CDT
Nautical Twilight 6:06 AM CDT 7:38 PM CDT
Astronomical Twilight 5:35 AM CDT 8:09 PM CDT
Moon 7:44 AM CDT (10/5) 6:59 PM CDT (10/5)
Length of Visible Light 12h 29m
Length of Day
11h 35m
New Moon, 1% of the Moon is Illuminated
Oct 5
New Moon
Oct 11
First Quarter
Oct 18
Full
Oct 26
Last Quarter
Nov 3
New

Hourly Weather History & Observations

Time (CDT) Temp. Dew Point Humidity Pressure Visibility Wind Dir Wind Speed Gust Speed Precip Events Conditions
12:54 AM 75.0 °F 68.0 °F 79% 29.88 in 10.0 mi South 9.2 mph - N/A   Clear
1:54 AM 73.9 °F 68.0 °F 82% 29.89 in 10.0 mi SSE 8.1 mph - N/A   Clear
2:54 AM 73.0 °F 68.0 °F 84% 29.86 in 10.0 mi South 6.9 mph - N/A   Clear
3:54 AM 73.0 °F 68.0 °F 84% 29.85 in 10.0 mi South 8.1 mph - N/A   Mostly Cloudy
4:54 AM 72.0 °F 68.0 °F 87% 29.86 in 10.0 mi South 5.8 mph - N/A   Partly Cloudy
5:54 AM 72.0 °F 68.0 °F 87% 29.87 in 10.0 mi South 6.9 mph - N/A   Partly Cloudy
6:54 AM 72.0 °F 68.0 °F 87% 29.88 in 10.0 mi South 8.1 mph - N/A   Mostly Cloudy
7:52 AM 71.6 °F 68.0 °F 88% 29.91 in 10.0 mi SW 8.1 mph - N/A   Overcast
7:54 AM 72.0 °F 68.0 °F 87% 29.89 in 10.0 mi SW 6.9 mph - N/A   Mostly Cloudy
8:05 AM 71.6 °F 68.0 °F 88% 29.91 in 10.0 mi SW 8.1 mph - N/A   Scattered Clouds
8:54 AM 72.0 °F 68.0 °F 87% 29.89 in 10.0 mi WSW 5.8 mph - N/A   Clear
9:54 AM 73.0 °F 63.0 °F 71% 29.88 in 10.0 mi SSW 10.4 mph - 0.00 in   Mostly Cloudy
10:54 AM 70.0 °F 63.0 °F 78% 29.92 in 10.0 mi SW 9.2 mph - 0.00 in Rain Light Rain
11:54 AM 68.0 °F 64.0 °F 87% 29.88 in 10.0 mi SW 4.6 mph - 0.03 in Rain Light Rain
12:12 PM 68.0 °F 64.4 °F 88% 29.91 in 10.0 mi West 5.8 mph - 0.00 in   Mostly Cloudy
12:21 PM 68.0 °F 64.4 °F 88% 29.90 in 10.0 mi West 8.1 mph - 0.00 in   Mostly Cloudy
12:40 PM 66.2 °F 62.6 °F 88% 29.91 in 10.0 mi West 11.5 mph - 0.00 in   Overcast
12:54 PM 64.0 °F 61.0 °F 90% 29.90 in 10.0 mi West 10.4 mph - 0.00 in   Overcast
1:54 PM 64.9 °F 61.0 °F 87% 29.87 in 10.0 mi WSW 10.4 mph - N/A   Overcast
2:43 PM 62.6 °F 57.2 °F 82% 29.88 in 10.0 mi SW 8.1 mph 17.3 mph N/A   Overcast
2:54 PM 62.1 °F 55.9 °F 80% 29.86 in 10.0 mi SW 9.2 mph - N/A   Overcast
3:31 PM 59.0 °F 55.4 °F 88% 29.87 in 9.0 mi WSW 10.4 mph - 0.05 in Rain Light Rain
3:54 PM 57.9 °F 54.0 °F 87% 29.85 in 9.0 mi WSW 9.2 mph - 0.07 in Rain Light Rain
4:54 PM 55.9 °F 51.1 °F 84% 29.86 in 10.0 mi SW 6.9 mph - 0.02 in   Overcast
5:13 PM 57.2 °F 51.8 °F 82% 29.87 in 10.0 mi WSW 9.2 mph - N/A   Overcast
5:54 PM 55.9 °F 51.1 °F 84% 29.87 in 10.0 mi SW 9.2 mph - N/A   Overcast
6:54 PM 55.0 °F 51.1 °F 86% 29.88 in 10.0 mi SSW 9.2 mph - N/A   Overcast
7:54 PM 53.1 °F 48.9 °F 86% 29.89 in 10.0 mi SSW 8.1 mph - N/A   Clear
8:54 PM 53.1 °F 48.9 °F 86% 29.88 in 10.0 mi SW 6.9 mph - N/A   Clear
9:54 PM 51.1 °F 48.9 °F 92% 29.88 in 10.0 mi SW 8.1 mph - N/A   Clear
10:54 PM 51.1 °F 48.0 °F 89% 29.89 in 10.0 mi SW 6.9 mph - N/A   Clear
11:54 PM 48.9 °F 46.0 °F 90% 29.88 in 10.0 mi SSW 3.5 mph - N/A   Clear